Location: Bogis-Bossey
(46.3500°N, 6.1667°E)
Time: 17:07:29
(UTC+00:00)

Cosmos 1602 - Pass Details

Date: 17 August 2022
Orbit: 505 x 527 km, 82.5° (Epoch: 30 September)

Event Time Altitude Azimuth Distance (km) Brightness Sun altitude
Exits shadow 19:56:45 17° 150° (SSE) 1,400 5.3 -12.3°
Maximum altitude 19:59:17 35° 92° (E) 876 4.4 -12.7°
Drops below altitude 10° 20:02:52 10° 26° (NNE) 1,790 6.6 -13.2°
Sets 20:05:09 0° 17° (NNE) 2,685 7.6 -13.5°
